Simultaneous Nadir Overpasses (SNOs) Predictions

Prediction of SNOs between METOP-A and NOAA-19 Satellite Orbit:

Table of predicted SNOs for the next 14.0 days since TLE Epoch: 6/12/2020
Index Date (METOP-A) Time (METOP-A) Lat,Lon (METOP-A) SZA (METOP-A ) Date (NOAA-19) Time (NOAA-19) Lat,Lon (NOAA-19) SZA (NOAA-19 ) Distance(km) Time Diff (sec)
1 06/13/2020 11:10:40 -80.53,-154.16 122.49 06/13/2020 11:09:35 -80.54,-154.02 122.49 2.74 65
2 06/13/2020 12:01:20 80.54, 13.33 57.53 06/13/2020 12:00:35 80.53, 13.39 57.52 1.57 45
3 06/13/2020 12:52:01 -80.55,-179.31 122.47 06/13/2020 12:51:35 -80.53,-179.31 122.49 1.71 26
4 06/13/2020 13:42:42 80.53, -12.15 57.51 06/13/2020 13:42:36 80.54, -12.26 57.51 2.11 6
5 06/13/2020 14:33:23 -80.54, 155.21 122.49 06/13/2020 14:33:36 -80.54, 155.06 122.49 2.77 13
6 06/13/2020 15:24:04 80.52, -37.63 57.49 06/13/2020 15:24:36 80.53, -37.55 57.51 1.76 32
7 06/13/2020 16:14:45 -80.52, 129.73 122.51 06/13/2020 16:15:36 -80.53, 129.77 122.50 0.81 51
8 06/13/2020 17:05:25 80.54, -62.79 57.51 06/13/2020 17:06:36 80.52, -62.85 57.51 1.98 71
9 06/24/2020 12:24:01 -80.55,-172.54 122.65 06/24/2020 12:23:05 -80.57,-172.55 122.64 2.22 56
10 06/24/2020 13:14:41 80.55, -5.10 57.37 06/24/2020 13:14:02 80.56, -5.15 57.37 1.04 39
11 06/24/2020 14:05:22 -80.56, 162.30 122.62 06/24/2020 14:05:05 -80.56, 162.15 122.63 2.74 17
12 06/24/2020 14:56:03 80.54, -30.58 57.36 06/24/2020 14:56:02 80.55, -30.45 57.37 2.68 1
13 06/24/2020 15:46:44 -80.55, 136.82 122.64 06/24/2020 15:47:05 -80.55, 136.86 122.63 0.72 21
14 06/24/2020 16:37:24 80.56, -55.74 57.38 06/24/2020 16:38:02 80.54, -55.74 57.37 1.66 38
15 06/24/2020 17:28:06 -80.54, 111.34 122.65 06/24/2020 17:29:06 -80.55, 111.22 122.63 2.86 60




NCC Satellite Simultaneous Nadir Overpasses (SNOs) Prediction Service
